Mather AFB, CA

3:09 AM PDT on March 24, 2017 (GMT -0700)
Mather

Weather History for KMHR - August, 2013

Change the Weather History Date:

Thursday, August 8, 2013

  Actual Average Record
Temperature  
Mean Temperature 68 °F -  
Max Temperature 82 °F 90 °F 104 °F (1996)
Min Temperature 53 °F 57 °F 50 °F (2011)
Cooling Degree Days 2    
Growing Degree Days 18 (Base 50)    
Moisture  
Dew Point 51 °F    
Average Humidity 62    
Maximum Humidity 94    
Minimum Humidity 23    
Precipitation  
Precipitation 0.00 in - - ()
Sea Level Pressure  
Sea Level Pressure 29.96 in    
Wind  
Wind Speed 7 mph (SSW)    
Max Wind Speed 14 mph    
Max Gust Speed -    
Visibility 10 miles    
Events      
Averages and records for this station are not official NWS values.
T = Trace of Precipitation, MM = Missing Value Source: NWS Daily Summary

Daily Weather History Graph

Daily Weather History Graph

Search for Another Location

Airport or City:

Trip Planner

Search our weather history database for the weather conditions in past years. The results will help you decide how hot, cold, wet, or windy it might be!

Date:

Astronomy

Aug. 08, 2013 Rise Set
Actual Time 6:13 AM PDT 8:07 PM PDT
Civil Twilight 5:44 AM PDT 8:36 PM PDT
Nautical Twilight 5:09 AM PDT 9:11 PM PDT
Astronomical Twilight 4:31 AM PDT 9:48 PM PDT
Moon 8:03 AM PDT (8/8) 8:51 PM PDT (8/8)
Length of Visible Light 14h 51m
Length of Day
13h 54m
Waxing Crescent, 3% of the Moon is Illuminated
Aug 8
Waxing Crescent
Aug 14
First Quarter
Aug 20
Full
Aug 28
Last Quarter
Sep 5
New

Hourly Weather History & Observations

Time (PDT) Temp. Dew Point Humidity Pressure Visibility Wind Dir Wind Speed Gust Speed Precip Events Conditions
1:55 AM 55.4 °F 53.6 °F 94% 30.00 in 10.0 mi South 5.8 mph - N/A   Clear
3:49 AM 57.2 °F 53.6 °F 88% 29.99 in 10.0 mi SSE 6.9 mph - N/A   Mostly Cloudy
3:58 AM 57.2 °F 53.6 °F 88% 29.99 in 10.0 mi SSE 6.9 mph - N/A   Overcast
5:50 AM 53.6 °F 51.8 °F 94% 29.98 in 10.0 mi SE 6.9 mph - N/A   Mostly Cloudy
6:46 AM 55.4 °F 53.6 °F 94% 29.98 in 10.0 mi South 8.1 mph - N/A   Mostly Cloudy
7:46 AM 57.2 °F 53.6 °F 88% 29.99 in 10.0 mi South 10.4 mph - N/A   Mostly Cloudy
8:46 AM 60.8 °F 53.6 °F 77% 30.00 in 10.0 mi South 6.9 mph - N/A   Mostly Cloudy
9:07 AM 60.8 °F 53.6 °F 77% 30.00 in 10.0 mi South 6.9 mph - N/A   Scattered Clouds
10:46 AM 66.2 °F 53.6 °F 64% 29.99 in 10.0 mi SW 9.2 mph - N/A   Partly Cloudy
11:46 AM 71.6 °F 53.6 °F 53% 29.99 in 10.0 mi WSW 8.1 mph - N/A   Partly Cloudy
12:46 PM 73.4 °F 53.6 °F 50% 29.97 in 10.0 mi West 3.5 mph - N/A   Partly Cloudy
1:45 PM 77.0 °F 50.0 °F 39% 29.96 in 10.0 mi Calm Calm - N/A   Partly Cloudy
2:47 PM 80.6 °F 50.0 °F 34% 29.93 in 10.0 mi WSW 8.1 mph - N/A   Partly Cloudy
3:48 PM 82.4 °F 46.4 °F 28% 29.92 in 10.0 mi West 4.6 mph - N/A   Partly Cloudy
4:45 PM 82.4 °F 48.2 °F 30% 29.90 in 10.0 mi SW 9.2 mph - N/A   Partly Cloudy
5:45 PM 82.4 °F 41.0 °F 23% 29.89 in 10.0 mi SW 10.4 mph - N/A   Partly Cloudy
7:45 PM 75.2 °F 50.0 °F 41% 29.88 in 10.0 mi SW 13.8 mph - N/A   Partly Cloudy
8:45 PM 68.0 °F 50.0 °F 52% 29.90 in 10.0 mi SSW 11.5 mph - N/A   Partly Cloudy
9:45 PM 64.4 °F 50.0 °F 59% 29.92 in 10.0 mi SSW 9.2 mph - N/A   Clear
10:45 PM 59.0 °F 50.0 °F 72% 29.93 in 10.0 mi SE 5.8 mph - N/A   Clear